Home   Weather   Stanley   Past weeks

Flag for Falkland Islands Past Weather in Stanley, Falkland Islands — Yesterday and Last 2 Weeks

Now
39 °F

Passing clouds.


Feels Like: 31 °F
Forecast: 39 / 48 °F
Wind: 14 mph from North

Location: Mount Pleasant Airport

Current Time: Apr 24, 2017 at 10:23:43 am

Latest Report: Apr 24, 2017 at 9:50 am


Visibility: N/A

Pressure: 29.95 "Hg

Humidity: 93%

Dew Point: 37 °F

Location of StanleyLocation

Past Weather in Stanley — Graph

°F

Stanley Temperature Yesterday

Maximum temperature yesterday: 39 °F (at 12:50 pm)
Minimum temperature yesterday: 32 °F (at 1:50 am)
Average temperature yesterday: 35 °F

High & Low Weather Summary for the Past Weeks

 TemperatureHumidityPressure
High55 °F (Apr 9, 12:50 pm)100% (Apr 9, 8:50 am)30.12 "Hg (Apr 9, 8:50 am)
Low32 °F (Apr 22, 9:50 pm)40% (Apr 20, 7:50 am)29.24 "Hg (Apr 18, 8:50 pm)
Average44 °F84%29.72 "Hg
* Reported Apr 9 8:50 am — Apr 24 8:50 am, Stanley, Weather by CustomWeather, © 2017

Note: Actual official high and low records may vary slightly from our data, if they occured in-between our weather recording intervals... More about our weather records

Advertising

Stanley Weather History for the Previous 24 Hours

Scroll right to see more
 ConditionsComfort  
Time TempWeatherWind HumidityBarometerVisibility
8:50 am
Mon, Apr 24
36 °FPassing clouds.8 mph87%29.95 "HgN/A
7:50 am32 °FPassing clouds.8 mph87%29.95 "HgN/A
6:50 am32 °FPassing clouds.9 mph87%29.95 "HgN/A
5:50 am37 °FClear.6 mph70%29.95 "Hg10 mi
4:50 am36 °FPassing clouds.5 mph87%29.95 "HgN/A
3:50 am36 °FPassing clouds.2 mph87%29.98 "HgN/A
2:50 am34 °FPassing clouds.2 mph87%29.98 "HgN/A
1:50 am32 °FClear.7 mph87%29.98 "HgN/A
12:50 am32 °FPassing clouds.6 mph87%29.98 "HgN/A
11:50 pm
Sun, Apr 23
34 °FPassing clouds.5 mph81%29.98 "HgN/A
10:50 pm36 °FPassing clouds.7 mph75%29.98 "HgN/A
9:50 pm36 °FPassing clouds.8 mph75%29.98 "HgN/A
8:50 pm36 °FPassing clouds.3 mph75%29.95 "HgN/A
7:50 pm36 °FPassing clouds.5 mph75%29.95 "HgN/A
6:50 pm37 °FPartly sunny.5 mph65%29.95 "HgN/A
5:50 pm37 °FSunny.2 mph65%29.95 "Hg10 mi
4:50 pm39 °FSunny.1 mph56%29.92 "Hg10 mi
3:50 pm39 °FPartly sunny.3 mph56%29.92 "HgN/A
2:50 pm39 °FPartly sunny.3 mph52%29.92 "HgN/A
1:50 pm39 °FPartly sunny.5 mph48%29.92 "HgN/A
12:50 pm39 °FSunny.3 mph61%29.89 "Hg10 mi
11:50 am37 °FSunny.3 mph70%29.89 "Hg10 mi
10:50 am36 °FSunny.3 mph81%29.89 "Hg10 mi
Weather by CustomWeather, © 2017

See weather overviewHow to use our weather pages